This is the latest recevied weather packets stored in our database for station/object KC1IUC-13. If no packets are shown the sender has not sent any weather packets the latest 10 day(s).
| Time | Temp. | Humidity | Pressure | Rain* | Wind** | Luminosity | Snow |
|---|---|---|---|---|---|---|---|
| 1777462564 | 11.67° C | 73% | 1013.1 hPa | 0 mm | - | 77 W/m² | - |
| 1777462024 | 12.22° C | 74% | 1013.1 hPa | 0 mm | - | 65 W/m² | - |
| 1777461484 | 11.67° C | 76% | 1013.1 hPa | 0 mm | - | 47 W/m² | - |
| 1777460944 | 8.89° C | 76% | 1012.8 hPa | 0 mm | - | 44 W/m² | - |
| 1777460404 | 7.22° C | 75% | 1013.1 hPa | 0 mm | - | 35 W/m² | - |
| 1777460044 | 6.67° C | 75% | 1013.1 hPa | 0 mm | - | 26 W/m² | - |
| 1777459504 | 6.67° C | 75% | 1013.1 hPa | 0 mm | - | 15 W/m² | - |
| 1777458964 | 6.67° C | 75% | 1013.1 hPa | 0 mm | - | 15 W/m² | - |
| 1777458424 | 6.67° C | 74% | 1013.1 hPa | 0 mm | - | 10 W/m² | - |
| 1777457884 | 6.67° C | 74% | 1013.5 hPa | 0 mm | - | 6 W/m² | - |
| 1777457344 | 6.11° C | 74% | 1013.5 hPa | 0 mm | - | 4 W/m² | - |
| 1777456804 | 6.11° C | 73% | 1013.5 hPa | 0 mm | - | 2 W/m² | - |
| 1777456444 | 6.11° C | 73% | 1013.5 hPa | 0 mm | - | 1 W/m² | - |
| 1777455904 | 6.11° C | 73% | 1013.5 hPa | 0 mm | - | 0 W/m² | - |
| 1777455364 | 6.11° C | 73% | 1013.5 hPa | 0 mm | - | 0 W/m² | - |
| 1777454824 | 6.11° C | 73% | 1013.1 hPa | 0 mm | - | 0 W/m² | - |
| 1777454284 | 6.11° C | 72% | 1013.5 hPa | 0 mm | - | 0 W/m² | - |
| 1777453744 | 6.11° C | 72% | 1013.5 hPa | 0 mm | - | 0 W/m² | - |
| 1777453204 | 6.11° C | 72% | 1013.1 hPa | 0 mm | - | 0 W/m² | - |
| 1777452844 | 6.11° C | 71% | 1013.5 hPa | 0 mm | - | 0 W/m² | - |
| 1777452304 | 6.11° C | 71% | 1013.5 hPa | 0 mm | - | 0 W/m² | - |
| 1777451764 | 6.11° C | 70% | 1013.1 hPa | 0 mm | - | 0 W/m² | - |
| 1777451224 | 6.11° C | 70% | 1013.1 hPa | 0 mm | - | 0 W/m² | - |
| 1777450684 | 6.11° C | 70% | 1012.8 hPa | 0 mm | - | 0 W/m² | - |
| 1777450144 | 6.11° C | 69% | 1012.8 hPa | 0 mm | - | 0 W/m² | - |
* Rain latest hour (hover to see other rain measurements)
** Current wind speed in m/s (hover to see current wind gust speed)